Volver al catálogo

DMSP 5D-2 F11 DEB

ActivoSSO
NORAD 28315·DEBRIS·🇺🇸 United States

Lanzado Nov 28, 1991 desde Vandenberg Space Force Base

Loading…

Próximos Pases (próximas 24 horas)

TLE

ActualizadoSource: Space-Track

Época: Sep 14, 2026, 05:26 UTC

1 28315U 91082AC  26257.22699307  .00002695  00000-0  11499-2 0  9997
2 28315  98.7920 357.6008 0098335 327.9600  61.0859 14.23336857142323

Sigue DMSP 5D-2 F11 DEB en tiempo real con AllMySat

Download on the App Store